Flag for Estonia Weather past 2 weeks in Tallinn, Estonia

Now
75 °F

Sunny.


Feels Like: 75 °F
Forecast: 66 / 84 °F
Wind: 5 mph from East

Location: Tallinn

Current Time: Jul 30, 2014 at 9:51:33 PM

Latest Report: Jul 30, 2014 at 9:20 PM


Visibility: 10 mi

Pressure: 29.80 "Hg

Humidity: 83%

Dew point: 70 °F

Location of TallinnLocation

Historic Weather in Tallinn — Graph

°F

Tallinn temperature yesterday

Maximum temperature yesterday: 82 °F (at 12:20 PM)
Minimum temperature yesterday: 64 °F (at 5:20 AM)
Average temperature yesterday: 72 °F

Past Weeks' High & Low Weather Summary

 TemperatureHumidityPressure
High88 °F (Jul 27, 2:20 PM)100% (Jul 16, 12:50 AM)30.24 "Hg (Jul 16, 12:50 AM)
Low39 °F (Jul 17, 2:20 AM)31% (Jul 27, 2:20 PM)29.77 "Hg (Jul 29, 4:50 PM)
Average70 °F71%30.07 "Hg
* Reported Jul 15 8:20 PM — Jul 30 8:20 PM, Tallinn, Weather by CustomWeather, © 2014

Note: Actual official high and low records may vary slightly from our data, if they occured in-between our weather recording intervals... More about our weather records

Advertising

Tallinn weather history for previous 24 hours

 ConditionsComfort  
Time TempWeatherWind HumidityBarometerVisibility
8:20 PM
Jul 30
77 °FSunny.5 mph74%29.77 "Hg10 mi
7:50 PM81 °FSunny.3 mph62%29.77 "Hg10 mi
7:20 PM81 °FSunny.2 mph58%29.77 "Hg10 mi
6:50 PM79 °FPassing clouds.6 mph70%29.77 "HgN/A
6:20 PM79 °FThundershowers. Passing clouds.13 mph70%29.80 "HgN/A
5:50 PM84 °FThundershowers. Scattered clouds.13 mph45%29.80 "HgN/A
5:20 PM81 °FThundershowers. Scattered clouds.3 mph62%29.80 "HgN/A
4:50 PM81 °FPassing clouds.6 mph62%29.80 "HgN/A
4:20 PM82 °FScattered clouds.7 mph55%29.80 "HgN/A
3:50 PM84 °FScattered clouds.9 mph48%29.80 "HgN/A
3:20 PM84 °FPassing clouds.9 mph51%29.80 "HgN/A
2:50 PM84 °FPassing clouds.9 mph51%29.80 "HgN/A
2:20 PM82 °FPassing clouds.10 mph51%29.83 "HgN/A
1:50 PM82 °FScattered clouds.9 mph58%29.83 "HgN/A
1:20 PM82 °FScattered clouds.8 mph62%29.83 "HgN/A
12:50 PM81 °FScattered clouds.7 mph66%29.83 "HgN/A
12:20 PM81 °FScattered clouds.8 mph70%29.83 "HgN/A
11:50 AM79 °FPassing clouds.7 mph70%29.83 "HgN/A
11:20 AM79 °FPassing clouds.7 mph74%29.83 "HgN/A
10:50 AM77 °FSunny.5 mph79%29.83 "Hg10 mi
10:20 AM75 °FSunny.3 mph83%29.83 "Hg10 mi
9:50 AM72 °FPassing clouds.5 mph100%29.83 "Hg6 mi
9:20 AM70 °FFog.3 mph94%29.83 "Hg2 mi
8:50 AM68 °FSleet. Cloudy.3 mph100%29.83 "Hg1 mi
8:20 AM68 °FSleet. Cloudy.3 mph100%29.83 "Hg1 mi
7:50 AM66 °FFog.2 mph100%29.83 "Hg0 mi
7:20 AM64 °FSleet. Cloudy.3 mph100%29.83 "Hg1 mi
6:50 AM64 °FFog.2 mph94%29.83 "Hg0 mi
6:20 AM63 °FFog.7 mph100%29.83 "Hg0 mi
5:50 AM63 °FFog.5 mph94%29.83 "Hg1 mi
5:20 AM63 °FFog.2 mph94%29.83 "Hg3 mi
4:50 AM63 °FFog.3 mph100%29.83 "Hg3 mi
4:20 AM63 °FFog.2 mph94%29.83 "Hg3 mi
3:50 AM61 °FLight fog.1 mph100%29.80 "Hg5 mi
3:20 AM63 °FClear.2 mph100%29.80 "Hg5 mi
2:50 AM63 °FLight fog.No wind94%29.83 "Hg5 mi
2:20 AM66 °FClear.3 mph94%29.83 "Hg6 mi
1:50 AM66 °FClear.2 mph94%29.83 "Hg5 mi
1:20 AM66 °FClear.3 mph94%29.80 "Hg6 mi
12:50 AM64 °FClear.No wind100%29.80 "Hg6 mi
12:20 AM66 °FClear.3 mph94%29.80 "Hg10 mi
11:50 PM
Jul 29
66 °FClear.No wind94%29.80 "Hg10 mi
11:20 PM68 °FClear.1 mph94%29.83 "Hg10 mi
10:50 PM68 °FSunny.3 mph94%29.80 "Hg10 mi
10:20 PM70 °FSunny.3 mph88%29.80 "Hg10 mi
9:50 PM72 °FSunny.6 mph83%29.83 "Hg10 mi
9:20 PM73 °FSunny.2 mph83%29.83 "Hg10 mi
Weather by CustomWeather, © 2014

See weather overviewHow to use our weather pages